Regional Weather Roundup
Issued by NWS

Home | Current Version | Previous Version | Graphics & Text | Print | Product List | Glossary On
Versions: 1 2 3 4 5 6 7 8 9 10 11 12 13 14 15 16 17 18 19 20 21 22 23 24 25 26 27
000
ASUS45 KBOU 162106
RWRCO

WEATHER ROUNDUP FOR COLORADO
NATIONAL WEATHER SERVICE DENVER/BOULDER CO
300 PM MDT WED APR 16 2014

NOTE: "FAIR" INDICATES FEW OR NO CLOUDS BELOW 12000 FEET WITH NO
SIGNIFICANT WEATHER AND/OR OBSTRUCTIONS TO VISIBILITY.

COZ001>005-013-030-031-162200-
...NORTHWEST COLORADO...

CITY           SKY/WX    TMP DP  RH WIND       PRES   REMARKS
CRAIG          PTSUNNY   48  10  21 W7        29.97F
HAYDEN         PTSUNNY   46   9  21 SW8G16    30.00S
MEEKER         PTSUNNY   52   5  15 VRB3      29.95F
MOUNT WERNER   NOT AVBL
STEAMBOAT SPGS PTSUNNY   47   2  15 W16       29.97S
WALDEN         MOSUNNY   41   9  26 W16       29.97S
$$

COZ006>008-011-162200-
...WEST CENTRAL VALLEYS...

CITY           SKY/WX    TMP DP  RH WIND       PRES   REMARKS
GRAND JUNCTION CLOUDY    56  12  17 SW10      29.91F
MONTROSE       CLOUDY    56  13  18 N9        29.94F
EAGLE          PTSUNNY   55   5  13 S20G25    29.92F
RIFLE          MOSUNNY   56   9  15 VRB3      29.90F
DELTA          CLOUDY    61  10  13 W8G18     29.91F
NUCLA            N/A     57  16  19 CALM      29.95S
$$

COZ017>023-064>068-162200-
...SOUTHWEST COLORADO...

CITY           SKY/WX    TMP DP  RH WIND       PRES   REMARKS
DURANGO        CLOUDY    59  16  18 NW20G31   29.86S
CORTEZ         MOSUNNY   61  20  20 W20       29.90S
PAGOSA SPRINGS CLOUDY    57  11  16 W23G31    29.88F
TELLURIDE      CLOUDY    45  16  31 W10       29.99S
WOLF CREEK PAS CLOUDY    32  14  47 SW13G28   30.03S WCI  22
$$

COZ009-010-012-014-032>034-037-058>063-162200-
...CENTRAL COLORADO...

CITY           SKY/WX    TMP DP  RH WIND       PRES   REMARKS
ASPEN          MOSUNNY   49  10  20 E6        29.92F
BUENA VISTA    CLOUDY    52   7  16 W20G28    29.88S
COPPER MTN     MOSUNNY   34   5  29 W25       30.01S WCI  21
BERTHOUD PASS  PTSUNNY   21  12  68 W24G33    30.03R WCI   4
COTTONWOOD PAS CLOUDY    46   5  18 NW9G33    29.94S
GUNNISON       CLOUDY    50  14  23 SW16G23   29.95F
KREMMLING      CLOUDY    50   1  13 NW8G16    29.96F
LEADVILLE      CLOUDY    39   7  26 N9        29.95F
MONARCH PASS   CLOUDY    30  14  51 W37G48    30.11S WCI  14
SALIDA         CLOUDY    59  12  16 SW18G29   29.94F
SUNLIGHT       PTSUNNY   37  12  35 CALM      30.03F
WILKERSON PASS CLOUDY    30  18  59 NE12G17   30.02S WCI  21
$$

COZ069>075-162200-
...SAN LUIS VALLEY/SANGRE DE CRISTO MOUNTAINS...

CITY           SKY/WX    TMP DP  RH WIND       PRES   REMARKS
ALAMOSA        CLOUDY    59  15  18 NW20G26   29.82F
LA VETA PASS   CLOUDY    37  27  65 E21G28    29.97F
SAGUACHE       CLOUDY    54  16  22 NW17G30   29.89F
$$

COZ035-036-038>040-162200-
...NORTHERN COLORADO FRONT RANGE...

CITY           SKY/WX    TMP DP  RH WIND       PRES   REMARKS
DENVER INTL AP PTSUNNY   54  18  24 N15G25    29.91S
DMNS CITY PARK   N/A     55  17  22 NE6G18    29.91S
AURORA         PTSUNNY   54  21  28 E14G24    29.92S
FRONT RANGE AP PTSUNNY   55  19  24 NE14G25   29.93
ERIE MUNI ARPT PTSUNNY   56  17  21 NE13G23   29.90S
BOULDER MUN AP PTSUNNY   55  18  22 E6        29.90R
CENTENNIAL     PTSUNNY   49  16  26 NE9       29.92R
BROOMFIELD     PTSUNNY   55  16  21 E8        29.91
FORT COLLINS   MOSUNNY   55  21  26 NE22      29.91R
LONGMONT       MOSUNNY   58  19  21 E12G17    29.91R
$$

COZ041-046-047-076>085-087-088-162200-
...PIKES PEAK/PALMER DIVIDE AND SOUTHERN FOOTHILLS...

CITY           SKY/WX    TMP DP  RH WIND       PRES   REMARKS
COLO. SPRINGS  CLOUDY    46  28  49 N21       29.96R
A. F. ACADEMY  LGT SNOW  39  31  72 E8        29.98R
ELLICOTT       NOT AVBL
FALCON         FLURRIES  39  29  67 W10       29.97R
FORT CARSON    CLOUDY    50  31  47 NW22G28   29.92R
LIMON          PTSUNNY   49  21  33 N18G26    29.94R
MONUMENT HILL  CLOUDY    43  18  36 NE9       29.95R
TRINIDAD       PTSUNNY   56  24  29 E18G28    29.87S
$$

COZ042>045-048>051-090-091-162200-
...NORTHEAST COLORADO...

CITY           SKY/WX    TMP DP  RH WIND       PRES   REMARKS
GREELEY ARPT   MOSUNNY   55  23  28 N18G31    29.92R
AKRON          SUNNY     52  23  32 N25G38    29.93S
BURLINGTON     PTSUNNY   57  24  28 N26G41    29.90R
WRAY           PTSUNNY   58  31  36 N18G29    29.93S
STERLING       SUNNY     57  28  33 N21G28    29.92F
HOLYOKE        PTSUNNY   54  32  43 N20G32    29.94S
FORT MORGAN    SUNNY     55  22  26 N21G29    29.93S
$$

COZ086-089-092>099-162200-
...SOUTHEAST COLORADO...

CITY           SKY/WX    TMP DP  RH WIND       PRES   REMARKS
PUEBLO         CLOUDY    60  21  22 E7        29.87R
LA JUNTA       PTSUNNY   63  20  19 N14G21    29.88R
LAMAR          PTSUNNY   63  23  21 NE18G26   29.88R
SPRINGFIELD      N/A     60  22  23 NE20G26   29.88F
$$



USA.gov is the U.S. government's official web portal to all federal, state and local government web resources and services.